Regional Weather Roundup
Issued by NWS

Home | Current Version | Previous Version | Graphics & Text | Print | Product List | Glossary On
Versions: 1 2 3 4 5 6 7 8 9 10 11 12 13 14 15 16 17 18 19 20 21 22 23 24 25 26 27 28 29 30 31 32 33 34 35 36 37 38 39 40 41 42 43 44 45 46 47 48 49 50
000
ASUS43 KLSX 210059
RWRMO

WEATHER SUMMARY FOR MISSOURI
NATIONAL WEATHER SERVICE SPRINGFIELD MO
700 PM CST SAT DEC 20 2014

NOTE: "FAIR" INDICATES FEW OR NO CLOUDS BELOW 12,000 FEET WITH NO
       SIGNIFICANT WEATHER AND/OR OBSTRUCTIONS TO VISIBILITY.
       CURRENT SKY AND/OR WEATHER CONDITIONS ARE NOT AVAILABLE FOR
       CHILLICOTHE AND FARMINGTON.

MOZ001>031-035>038-043-044-053-054-210200-
...NORTHERN AND WESTERN MISSOURI...

CITY           SKY/WX    TMP DP  RH WIND       PRES   REMARKS
KANSAS CTY INT CLOUDY    42  37  82 S10       30.12R
KANSAS C DTWN  CLEAR     41  35  79 S9        30.15R
LEE`S SUMMIT   PTCLDY    39  34  82 S10       30.15R
ST JOSEPH      CLOUDY    38  36  92 CALM      30.11S
CHILLICOTHE      N/A     39  36  89 S6        30.17R
KIRKSVILLE     CLOUDY    37  36  96 S8        30.18S

$$
MOZ066>068-077>081-088>096-101>105-210200-
...SOUTHWEST MISSOURI...

CITY           SKY/WX    TMP DP  RH WIND       PRES   REMARKS
SPRINGFIELD    CLOUDY    42  36  79 S8        30.18R
JOPLIN         CLOUDY    43  35  73 S10       30.18S

$$
MOZ032>034-039>042-045>050-055>058-069>072-210200-
...CENTRAL MISSOURI...

CITY           SKY/WX    TMP DP  RH WIND       PRES   REMARKS
COLUMBIA       CLOUDY    40  36  86 SE3       30.20S
JEFFERSON CITY CLOUDY    41  36  82 SE5       30.21S
ROLLA          CLOUDY    39  34  82 SW5       30.19R
SEDALIA        CLOUDY    41  34  76 SW9       30.19R
WARRENSBURG    CLOUDY    37  34  87 S6        30.18R
OSAGE BEACH    CLOUDY    43  34  70 S5        30.20S

$$
MOZ051-052-059>065-210200-
...EAST CENTRAL MISSOURI...

CITY           SKY/WX    TMP DP  RH WIND       PRES   REMARKS
ST LOUIS INTL  CLOUDY    43  32  65 SE8       30.25R
SPIRIT OF STL  CLOUDY    42  34  73 SE5       30.24R
ST CHARLES     CLOUDY    39  36  89 E5        30.25R

$$
MOZ072>076-082>087-097>100-106>115-210200-
...SOUTH CENTRAL AND SOUTHEAST MISSOURI...

CITY           SKY/WX    TMP DP  RH WIND       PRES   REMARKS
CAPE GIRARDEAU CLOUDY    42  34  73 CALM      30.27R
FARMINGTON     CLOUDY    39  34  81 E6        30.26R
POPLAR BLUFF   CLOUDY    42  34  73 CALM      30.26R
WEST PLAINS    CLOUDY    41  35  79 S5        30.22R

$$


USA.gov is the U.S. government's official web portal to all federal, state and local government web resources and services.